Regional Weather Roundup
Issued by NWS

Home | Current Version | Previous Version | Text Only | Print | Product List | Glossary On
Versions: 1 2 3 4 5 6 7 8 9 10 11 12 13 14 15 16 17 18 19 20 21 22 23 24 25 26 27 28 29 30 31 32 33 34 35 36 37 38 39 40 41 42 43 44 45 46 47 48 49 50
000
ASUS45 KSLC 020510
RWRUT

UTAH REGIONAL WEATHER ROUNDUP
NATIONAL WEATHER SERVICE SALT LAKE CITY UT
1000 PM MST SUN MAR 01 2015

UTZ001>011-023>025-020600-

NORTHERN UTAH

CITY           SKY/WX    TMP DP  RH WIND       PRES   REMARKS
BRIGHAM CITY   CLOUDY    36  24  64 CALM      30.01F
HILL AFB       MOCLDY    37  26  65 E9        29.99F WCI  30
LOGAN          MOCLDY    37  24  59 S7        30.00S WCI  32
OGDEN          MOCLDY    36  27  69 CALM      29.99F
PROVO AIRPORT  CLOUDY    39  30  70 SW6       30.01R WCI  35
SALT LAKE CITY MOCLDY    38  30  73 S5        30.00S WCI  34
VERNAL         CLOUDY    37  25  61 NE3       30.06R
WENDOVER       CLEAR     36  18  48 W5        30.00R WCI  32
HEBER CITY     CLOUDY    34  30  86 CALM      30.00S
WEST JORDAN    CLOUDY    37  30  75 CALM      30.01S

$$

UTZ012>022-026-027-020600-

SOUTHERN/CENTRAL UTAH

CITY           SKY/WX    TMP DP  RH WIND       PRES   REMARKS
BLANDING       CLOUDY    34  34 100 CALM      30.12R
BRYCE CANYON   SNOW      27  26  96 SE5       29.99R VSB 1/2 WCI  22
CEDAR CITY     LGT SNOW  32  31  96 NW3       29.96S VSB 1
DELTA          CLOUDY    37  34  92 S5        29.98F WCI  33
HANKSVILLE     CLOUDY    37  36  93 CALM      30.07S
MILFORD        CLOUDY    35  33  92 CALM      29.98S
MOAB/CYNLANDS  CLOUDY    38  35  89 CALM      30.03S
PRICE          FLURRIES  34  30  85 CALM      30.05S
ST GEORGE      CLOUDY    43  39  87 S3        30.00F
KANAB            N/A     34  34 100 N8        30.02F WCI  27

$$

REGIONAL REPORTS     COLORADO/ARIZONA

CITY           SKY/WX    TMP DP  RH WIND       PRES   REMARKS
CRAIG, CO      CLOUDY    30  26  85 E3        30.06F
GRAND JUNCTION LGT RAIN  38  34  85 E8        30.05S WCI  32
RIFLE          CLOUDY    39  30  70 CALM      30.05S
MONTROSE       CLOUDY    33  32  96 CALM      30.07F
CORTEZ         MOCLDY    34  33  96 CALM      30.07S
PAGE, AZ       LGT RAIN  36  33  89 W5        30.01F WCI  32
GRAND CANYON   FLURRIES  36  34  92 SE7       29.99S WCI  30
KINGMAN        LGT RAIN  41  39  93 NE6       29.93F
FLAGSTAFF      LGT RAIN  39  36  89 S20G31    30.02S WCI  29

$$

REGIONAL REPORTS    NEVADA/IDAHO/WYOMING

CITY           SKY/WX    TMP DP  RH WIND       PRES   REMARKS
LAS VEGAS, NV  LGT RAIN  47  43  86 SW5       29.93F
ELY            MOCLDY    31  26  82 SE7       29.95F WCI  24
ELKO           CLEAR     32  22  66 E5        29.96R WCI  27
POCATELLO, ID  CLEAR     25  10  53 E5        30.01F WCI  19
BURLEY         CLEAR     26  11  52 S3        29.99S
EVANSTON, WY   CLOUDY    26  20  77 E6        30.01S WCI  19
ROCK SPRINGS   MOCLDY    24  16  71 E5        30.02R WCI  18

$$


USA.gov is the U.S. government's official web portal to all federal, state and local government web resources and services.